Temp
4 4 2 2 3 4 3 3 2 3 5 4 4 5 6 7 7 7 8 9 10 10 12 13 14 16 15 14 14 15 15 14 14 13 13 12 12 12 12 12 12 12 11 11
3 3 3 4 4 4 4 4 3 4 5 5 4 4 6 7 6 7 7 8 9 10 11 12 13 15 15 14 14 14 15 14 15 15 15 13 13 12 12 12 12 12 11 11
3 4 4 4 4 4 4 4 3 3 4 4 4 3 7 8 8 9 9 8 9 10 10 11 12 13 15 14 13 14 14 14 15 14 13 13 13 12 11 11 11 11 11 11
3 3 4 4 4 3 4 4 4 4 3 3 4 1 5 6 8 8 9 8 9 9 10 11 12 13 13 15 15 14 14 14 13 14 13 13 13 10 10 12 12 11 11 11
2 2 3 3 3 3 4 3 3 3 3 2 3 1 2 5 6 8 10 10 10 10 10 10 12 13 14 14 15 14 14 14 13 13 14 14 12 12 11 11 12 11 11 11
2 3 3 3 4 3 3 3 3 3 3 -3 4 3 5 5 7 8 10 10 10 11 11 12 12 12 13 14 14 13 13 14 13 12 13 13 12 11 11 11 11 11 11 11
1 2 3 4 2 3 3 1 -4 -3 -4 -0 4 4 5 7 8 8 9 9 10 10 9 9 10 11 13 12 14 13 13 14 13 12 12 12 12 12 12 11 10 9 10 10
-3 -3 2 3 2 2 2 2 -1 -1 1 3 4 4 6 9 9 9 9 9 9 9 10 9 9 10 11 12 13 13 13 14 14 12 11 12 12 11 12 12 11 10 10 10
-3 -0 2 3 3 3 3 0 3 2 1 1 3 4 6 8 8 7 7 7 7 7 9 8 9 11 10 11 12 13 13 13 14 13 12 11 11 11 10 11 12 11 11 11
-4 -4 1 3 2 3 3 4 -1 -1 -4 -1 2 4 6 6 6 6 6 5 5 6 6 7 8 9 9 9 10 13 13 13 13 14 13 12 10 10 11 10 11 11 11 11
-2 -3 -1 1 0 1 1 1 -3 -3 -1 1 0 3 5 6 5 5 5 5 4 5 6 6 8 8 7 7 7 9 13 13 13 13 13 13 11 10 10 10 11 11 11 11
1 -5 -4 -2 2 1 -3 -0 -1 -5 -2 0 1 1 5 5 5 4 3 4 4 4 6 6 6 6 5 6 6 7 9 13 13 13 13 12 10 9 9 9 10 11 10 11
-2 -6 -4 -5 -1 -0 -2 0 2 0 0 -0 -0 1 6 5 4 3 3 3 3 3 3 4 4 5 5 5 6 6 7 11 14 13 13 12 11 9 9 9 9 10 10 11
1 -1 -3 -2 -0 0 -1 0 0 0 -1 0 1 2 3 4 3 3 3 2 3 3 3 2 1 5 5 5 5 6 6 11 14 13 14 13 11 9 9 9 9 9 9 10
-5 -4 -7 -3 -0 -1 -1 -1 -1 -2 -1 -2 0 0 2 3 2 3 3 3 3 3 2 1 1 3 4 5 6 6 7 11 13 13 14 13 11 10 9 8 8 8 9 9
-9 -4 -6 -2 -1 -1 -1 -1 -0 -1 -1 -1 -1 0 3 3 3 3 2 2 2 2 2 1 1 1 2 3 5 7 7 9 13 14 14 13 10 9 8 8 8 8 8 8
-2 -3 -2 -2 -7 -8 -5 -3 -0 1 0 -2 -1 1 2 2 3 3 2 1 2 2 2 1 1 1 1 2 3 7 7 9 13 14 13 11 9 9 8 7 7 7 7 7
-1 -1 -2 -2 -6 -3 -2 0 1 0 1 -0 2 2 1 2 2 3 4 3 2 2 1 1 1 0 0 1 2 2 7 10 13 13 11 10 9 8 8 7 7 7 7 7
-1 -2 -3 -3 -4 -1 0 1 1 1 1 -0 -1 2 1 2 2 3 4 3 2 2 1 1 0 -0 -0 0 -0 1 6 9 12 11 10 9 9 8 7 7 7 7 7 7
-1 -2 -3 -8 -5 -4 0 2 3 2 -1 2 1 2 -0 2 1 3 4 3 2 2 1 -0 -0 -0 -0 -1 -1 3 6 7 9 10 9 9 8 8 7 7 7 7 7 7
-13 -14 -5 -4 -2 -1 1 1 1 -1 -1 0 1 2 1 1 2 3 3 2 2 2 1 -0 -0 -1 -1 -1 -1 0 1 2 3 8 9 8 8 8 7 7 7 7 7 7
-8 -7 -9 -12 -9 -4 1 0 -1 0 1 1 1 1 1 1 2 3 2 2 1 1 0 -0 -1 -1 -1 -1 -1 -1 -1 -1 2 6 8 8 8 7 7 7 7 7 7 6
-5 -4 -4 -2 -2 0 1 0 1 1 1 1 2 2 2 2 2 3 2 1 1 0 -1 -1 -2 -1 -1 -2 -2 -2 -2 -1 1 5 7 7 8 7 7 7 6 6 6 6
-3 -2 -2 -3 -1 -1 -0 0 0 1 1 2 2 2 1 1 2 2 1 1 0 -1 -2 -3 -3 -2 -2 -3 -2 -2 -2 -2 1 3 5 6 6 6 6 6 6 6 6 6
-1 -2 -3 -2 -2 -1 -0 -0 -0 0 1 2 2 1 0 1 2 1 0 0 -1 -2 -3 -4 -4 -4 -3 -4 -3 -3 -2 -2 -1 1 3 4 5 6 6 6 6 6 6 6
-2 -2 -3 -3 -2 -2 -1 -1 0 0 1 1 1 1 2 2 1 0 -0 -1 -2 -3 -4 -5 -5 -5 -5 -5 -4 -4 -3 -2 -2 -1 0 2 4 5 5 5 5 6 6 6
Height
826 834 848 849 844 842 845 849 851 842 833 828 824 802 789 786 778 773 768 762 753 753 744 742 741 742 743 743 745 747 749 751 758 763 767 772 774 780 784 788 792 795 798 801
837 847 848 844 841 841 842 841 847 836 831 831 824 797 781 776 776 772 768 760 754 749 743 738 736 735 735 736 738 741 742 744 750 754 759 767 771 777 781 786 790 793 797 800
844 851 846 842 845 841 837 841 846 847 834 828 824 802 775 771 770 764 761 756 752 747 741 734 731 729 730 730 731 733 736 736 741 747 754 762 770 775 779 782 785 789 794 798
851 852 849 847 845 846 839 839 840 839 842 842 834 836 788 781 768 764 759 757 750 746 740 735 730 726 724 723 724 725 728 731 734 738 746 750 756 764 770 774 779 785 791 795
861 857 854 851 850 848 845 841 838 839 842 846 834 852 806 785 779 768 757 752 748 745 739 735 728 722 719 718 716 717 720 724 727 729 735 742 751 758 764 772 778 782 787 792
859 855 854 854 850 848 845 839 835 833 839 885 829 836 794 791 779 767 757 754 749 740 734 729 724 718 712 710 709 711 714 717 721 724 728 734 742 749 758 765 772 776 782 788
866 861 858 855 858 848 847 852 895 885 899 868 827 826 801 783 771 767 765 760 752 745 739 732 725 718 710 704 703 703 705 709 714 718 723 727 734 739 748 755 764 770 775 781
899 901 866 860 863 863 857 856 884 889 858 840 824 819 791 771 769 771 769 764 757 747 736 730 722 716 709 700 697 696 697 701 705 710 715 721 727 733 740 747 755 762 767 772
904 885 865 863 859 860 857 870 854 861 862 855 824 810 788 771 774 771 769 765 759 751 734 727 717 709 705 698 692 689 690 691 695 701 708 713 718 724 732 738 747 753 761 767
905 912 871 862 860 857 861 856 884 876 909 873 829 811 791 783 779 773 767 765 754 745 734 720 712 705 699 694 688 684 681 682 686 691 696 703 710 717 723 731 738 745 752 760
896 904 887 871 873 867 865 865 886 886 875 857 849 815 796 791 789 781 772 766 758 744 729 718 711 703 695 687 681 678 676 675 678 682 686 694 700 708 717 722 730 737 745 752
884 908 907 886 861 866 878 873 874 906 885 860 848 826 795 792 790 788 778 765 753 743 723 716 709 702 693 683 675 671 668 666 665 671 679 685 693 699 706 713 721 729 737 745
894 914 903 904 874 869 878 869 860 869 864 856 853 822 787 793 789 786 780 764 754 743 731 719 711 700 690 678 671 664 657 654 657 661 668 677 685 691 695 703 712 720 728 737
881 882 894 886 874 867 872 865 864 866 863 845 835 817 797 790 790 780 770 765 751 739 731 720 710 697 684 673 665 655 647 644 646 651 658 666 673 681 688 697 704 713 720 729
893 895 906 885 869 869 863 858 857 863 849 860 830 824 804 793 790 782 772 761 751 736 727 720 710 696 683 670 659 649 640 637 638 644 650 655 667 676 684 690 698 707 714 721
901 890 890 875 866 863 854 850 845 842 837 838 829 815 796 790 782 777 769 761 750 736 727 717 706 695 683 669 657 645 636 631 633 638 643 652 661 670 677 684 692 701 710 716
884 881 875 860 886 890 867 847 830 821 819 830 825 801 794 787 778 772 767 763 750 737 725 715 707 696 683 669 657 643 634 629 629 633 639 646 654 664 672 679 687 695 703 711
871 871 873 861 882 859 832 817 817 818 809 808 800 794 788 780 771 767 759 754 747 737 726 715 704 691 679 666 654 643 633 628 626 629 635 641 650 659 667 675 681 690 697 704
865 870 874 864 862 834 817 813 814 809 802 801 798 788 784 773 767 757 749 748 744 736 727 716 707 695 680 668 655 644 633 627 624 626 632 639 647 656 664 670 676 684 693 700
860 859 869 893 871 852 813 803 801 801 805 784 784 784 784 770 766 750 743 744 740 734 727 716 705 694 680 666 656 645 635 629 626 627 631 637 644 652 660 666 672 679 687 695
914 915 871 861 846 827 807 802 801 812 804 788 786 778 773 771 762 747 743 741 737 733 726 716 705 694 685 672 661 651 643 636 631 629 631 636 642 648 655 662 667 675 683 691
886 880 892 902 886 838 806 805 810 794 787 787 780 773 767 759 749 744 740 739 734 729 723 714 704 695 687 677 666 657 649 643 636 632 631 635 641 647 653 658 664 671 678 686
860 850 847 840 824 805 801 800 797 789 792 781 775 767 760 755 746 740 737 734 730 725 719 714 712 701 691 680 672 662 654 646 638 636 635 635 640 645 650 655 661 668 674 680
830 830 831 828 812 804 798 793 789 785 779 771 766 762 757 752 743 738 735 732 728 726 722 718 709 700 691 686 677 670 659 648 641 638 637 638 640 645 649 654 658 663 669 676
819 824 823 814 799 794 789 785 779 774 770 764 757 755 751 746 738 736 732 729 729 727 723 716 711 706 697 689 682 673 663 653 646 642 641 641 642 645 648 652 655 660 665 669
816 816 816 810 798 796 779 771 768 768 763 758 755 749 742 741 735 731 730 728 728 726 722 717 713 707 700 694 688 678 669 661 656 650 646 644 644 645 648 651 656 660 663 668
Wind_Speed
7 11 9 5 5 2 2 3 6 4 3 15 8 26 24 18 20 20 19 21 22 15 21 23 23 24 29 31 31 32 35 38 37 36 32 30 30 27 25 23 22 22 21 21
6 11 4 3 3 4 3 3 4 9 12 11 10 29 24 20 12 14 16 18 19 16 16 18 21 22 24 30 32 34 36 38 41 41 38 29 31 29 27 25 24 23 23 23
9 2 5 3 5 14 4 3 4 7 15 7 11 11 5 9 8 9 8 11 13 15 16 18 15 20 26 28 30 33 36 40 44 41 36 27 26 24 27 27 27 27 26 25
6 4 6 4 7 9 4 4 8 12 11 4 9 8 6 8 15 9 13 10 12 13 12 13 13 19 23 30 32 35 37 38 41 43 42 39 33 21 26 35 33 30 28 27
1 6 5 6 8 8 5 10 13 11 8 6 2 2 7 8 6 16 21 18 20 15 15 14 15 25 29 28 33 35 36 37 38 46 46 44 32 32 28 31 34 32 30 29
2 2 2 4 10 2 10 8 5 1 2 3 3 1 7 5 15 20 19 20 21 24 23 21 26 26 26 29 30 30 32 35 36 42 44 45 39 34 32 34 36 37 34 33
6 4 6 3 5 6 15 7 5 6 5 3 4 7 9 16 20 17 21 18 20 18 17 20 21 23 30 25 28 29 31 33 34 39 41 44 42 42 42 40 38 36 38 38
5 8 7 10 1 4 5 3 3 3 4 11 10 6 5 18 19 15 20 19 26 26 24 20 20 25 32 27 26 30 30 33 35 37 39 42 42 41 42 44 41 41 42 41
4 6 9 11 8 0 4 3 4 4 6 6 4 7 12 14 16 19 23 25 26 29 23 23 24 27 28 29 28 30 31 35 38 38 38 39 41 40 39 44 44 44 43 41
3 3 8 10 5 1 3 4 4 2 4 5 6 13 11 17 20 27 29 30 32 29 30 26 24 25 30 28 27 30 33 36 38 42 41 39 39 40 43 42 44 43 45 43
3 3 6 6 2 5 4 2 3 2 2 4 6 5 10 20 21 26 28 29 29 32 26 22 20 27 28 28 26 26 29 33 36 40 41 40 40 40 40 40 45 46 45 45
2 3 2 8 11 7 5 3 4 3 6 7 13 12 16 11 25 20 26 27 27 29 22 19 19 24 25 24 23 25 27 33 38 39 39 41 37 39 41 42 45 46 45 46
2 2 5 9 5 3 4 3 7 6 9 15 11 9 13 19 19 21 23 29 22 24 25 19 20 17 18 23 25 25 27 33 37 38 40 37 39 39 42 42 44 47 46 46
12 4 7 10 11 9 13 15 14 13 8 14 12 21 26 19 21 25 25 20 22 20 23 22 21 20 20 24 26 25 25 28 35 38 39 39 40 40 39 40 43 46 46 46
4 6 5 8 15 15 18 19 18 14 19 10 22 22 19 15 18 20 23 18 26 23 24 23 22 20 19 23 27 26 25 24 31 35 36 37 36 37 36 38 41 42 43 45
2 6 4 16 17 17 23 19 18 20 21 17 21 23 9 15 16 16 22 22 23 21 22 23 23 22 20 23 28 26 23 19 29 32 33 32 33 35 36 35 38 39 39 40
9 6 8 16 3 5 10 10 15 8 5 7 8 12 12 16 16 14 17 20 23 23 21 23 21 20 23 28 31 25 22 14 27 27 27 30 32 33 34 34 36 37 38 37
13 11 5 12 2 12 7 3 5 7 15 10 11 12 15 16 14 12 12 13 20 22 22 20 20 26 32 33 31 31 23 14 22 22 25 29 31 30 31 33 34 34 36 37
13 7 4 4 8 17 18 13 14 12 17 12 9 14 12 14 8 11 8 11 15 17 20 22 27 31 31 29 32 28 21 13 13 19 24 29 31 29 30 31 32 32 32 32
4 9 5 3 11 15 16 16 7 3 13 17 10 9 10 14 12 12 13 15 17 20 24 27 29 30 32 37 35 26 16 13 5 17 24 29 31 33 32 31 32 31 32 32
2 3 9 10 14 15 12 8 4 8 11 7 8 20 19 13 11 17 14 14 17 18 22 31 27 23 31 35 32 24 21 18 21 12 28 28 31 32 31 30 31 30 30 28
5 3 3 1 3 20 13 9 8 10 25 25 23 21 20 19 19 13 13 11 12 13 18 25 26 23 29 34 31 26 22 28 20 6 23 27 28 27 29 31 30 31 30 28
5 7 7 7 13 22 23 24 24 28 20 23 21 21 21 19 19 14 10 10 10 15 17 20 23 23 25 32 31 28 31 30 20 6 16 26 28 28 28 27 27 27 29 28
7 11 9 16 21 25 23 23 23 20 26 26 25 22 20 17 17 11 8 8 8 13 14 18 21 21 24 28 31 30 32 33 23 6 9 17 24 25 26 25 28 27 26 24
14 9 9 19 24 22 20 21 22 22 19 22 18 15 15 15 17 7 6 8 7 12 14 16 16 19 23 28 27 33 37 36 28 18 3 10 19 24 25 24 26 24 27 31
3 7 8 13 23 20 26 26 25 22 22 23 19 20 20 18 15 6 5 7 7 10 13 14 15 19 24 28 24 33 35 35 29 21 17 4 12 17 22 22 18 22 28 32
Wind_Direction
18 58 39 8 39 151 204 229 268 272 304 335 309 288 296 301 283 278 280 283 286 271 280 280 276 270 262 241 223 214 213 215 210 202 198 200 203 203 202 202 198 195 195 191
53 57 337 328 50 33 335 311 335 306 336 328 298 295 304 287 275 279 282 283 280 288 286 282 276 263 252 241 225 218 214 208 210 205 203 201 204 204 204 201 199 198 197 197
79 70 332 31 41 19 2 47 316 297 325 278 335 286 8 325 323 322 305 276 280 279 278 283 275 258 257 233 222 215 212 211 209 204 198 195 199 205 203 201 200 199 198 199
77 356 10 12 32 12 350 348 309 304 335 309 43 290 355 2 339 335 327 319 313 308 301 287 285 277 243 241 237 223 213 210 202 202 197 194 194 189 201 201 200 197 198 199
322 349 4 21 353 342 282 312 290 294 292 329 339 293 276 343 336 328 321 322 320 311 314 304 298 292 281 254 240 226 213 206 198 201 200 198 192 199 201 206 200 198 198 200
30 295 34 352 321 316 304 298 326 80 149 41 245 127 301 359 310 312 313 323 321 320 315 314 309 293 280 271 248 224 211 207 199 197 197 197 193 192 194 200 199 199 199 200
341 355 334 65 339 328 3 6 359 5 11 231 346 304 265 294 289 296 324 324 329 334 334 328 327 323 302 267 245 221 209 208 203 199 197 199 197 199 200 199 196 194 197 201
23 343 9 347 37 293 340 42 103 304 320 295 282 245 263 292 308 335 338 342 327 323 318 313 308 312 313 279 250 223 211 210 207 202 199 201 198 198 199 202 197 200 199 200
49 304 321 311 327 112 343 21 295 272 254 271 242 282 299 298 349 341 336 337 330 323 316 312 312 309 306 296 263 231 213 209 207 207 203 202 197 196 194 201 207 203 203 202
258 303 301 316 332 75 96 280 24 352 343 303 284 301 286 330 332 337 335 332 325 318 307 305 308 304 302 290 283 252 223 213 206 204 205 203 200 198 198 197 198 202 204 205
150 142 293 344 341 314 347 58 6 134 211 278 301 282 295 308 330 338 326 321 320 315 301 297 303 308 299 289 287 273 243 219 212 207 203 203 199 197 194 193 199 204 204 205
352 194 259 241 280 294 166 200 119 111 282 270 272 273 274 326 326 332 320 324 322 327 313 306 307 306 301 296 291 278 256 231 214 207 202 200 198 192 190 193 196 200 201 205
316 300 307 336 354 341 94 284 304 270 281 258 273 286 296 317 322 325 324 328 326 332 332 319 312 303 303 307 298 288 263 234 218 204 200 195 198 193 190 190 192 198 199 202
290 237 197 258 257 291 282 277 272 273 271 272 275 287 293 316 328 328 331 323 325 340 331 330 316 309 311 309 299 297 277 237 214 201 199 195 196 195 188 187 189 194 195 196
150 235 197 235 275 275 270 275 276 256 252 256 275 283 284 316 318 322 326 324 329 330 339 327 318 314 312 316 308 310 303 247 206 198 201 198 193 192 187 185 186 189 191 194
320 272 298 282 268 264 272 272 270 265 262 260 258 265 290 302 300 325 330 326 326 329 328 328 323 319 316 316 311 310 307 261 199 200 201 190 183 185 186 181 182 183 187 189
266 274 293 287 262 306 277 243 243 245 230 210 255 280 297 292 295 318 324 328 324 327 324 331 322 319 318 318 314 310 308 270 201 202 190 180 174 180 184 179 178 180 184 185
254 262 263 284 336 276 244 242 252 240 268 259 264 277 274 273 281 287 301 321 324 332 323 322 330 326 326 324 320 319 317 266 204 194 175 169 170 175 176 176 177 180 181 183
218 236 269 245 254 284 290 273 267 267 281 265 258 264 280 289 288 280 312 315 310 325 325 316 327 327 328 333 328 321 318 312 223 166 166 166 169 168 172 176 176 177 179 182
205 212 202 254 281 282 286 306 268 278 283 274 232 271 294 325 314 307 325 320 315 317 319 323 327 336 343 347 341 335 329 344 193 156 159 165 166 168 175 177 174 175 179 183
342 330 230 260 271 281 280 290 272 250 275 336 295 315 310 304 283 288 304 304 308 309 314 326 330 343 346 345 348 350 351 353 336 172 164 165 170 173 176 174 171 174 176 177
188 237 237 356 256 278 272 320 281 308 317 310 302 300 298 296 295 294 290 299 309 313 320 328 332 337 347 349 352 352 351 338 337 290 166 169 174 175 174 172 172 174 173 174
274 195 261 248 267 279 284 286 287 291 289 292 295 297 298 297 293 293 288 302 307 317 326 333 325 324 347 351 353 353 346 344 341 286 194 181 183 182 175 170 170 171 174 174
247 244 262 284 276 278 285 282 279 277 286 286 287 287 287 286 286 279 291 303 318 321 326 327 337 336 341 347 350 352 352 356 358 326 191 177 173 172 174 172 173 173 175 176
275 302 282 281 285 294 288 282 276 275 279 289 276 272 274 288 286 258 290 306 311 313 328 341 338 335 338 341 350 355 360 2 1 6 338 192 180 175 172 174 175 179 183 180
245 268 286 291 299 296 290 288 283 288 286 287 286 295 292 289 279 260 272 287 306 321 334 342 341 342 341 343 345 2 9 7 2 1 4 331 190 177 174 172 171 188 191 190